Location: Allison Elementary School
(34.0784°N, 117.7317°W)
Time: 11:08:57
(UTC+00:00)

Cosmos 1980 Rocket - Pass Details

Date: 15 November 2019
Orbit: 827 x 851 km, 71.0° (Epoch: 08 December)

Event Time Altitude Azimuth Distance (km) Brightness Sun altitude
Rises 03:16:19 0° 222° (SW) 3,377 5.9 -30.8°
Reaches altitude 10° 03:18:56 10° 230° (SW) 2,450 5.2 -31.3°
Maximum altitude 03:24:05 36° 297° (WNW) 1,300 3.5 -32.4°
Enters shadow 03:25:54 29° 334° (NNW) 1,497 3.6 -32.8°
